owner,sensor,date,latitude,longitude,vertical_datum,sea_water_temperature,qcFlag 
TCOON,ioos:station:TCOON:042:1,2014-02-01T00:00:00Z,27.8888,-97.5696,0.0,21.0,2 
TCOON,ioos:station:TCOON:042:1,2014-02-01T00:30:00Z,27.8888,-97.5696,0.0,20.4,2 
TCOON,ioos:station:TCOON:042:1,2014-02-01T01:00:00Z,27.8888,-97.5696,0.0,20.0,2 
TCOON,ioos:station:TCOON:042:1,2014-02-01T01:30:00Z,27.8888,-97.5696,0.0,19.5,2 
TCOON,ioos:station:TCOON:042:1,2014-02-01T02:00:00Z,27.8888,-97.5696,0.0,19.1,2 
TCOON,ioos:station:TCOON:042:1,2014-02-01T02:30:00Z,27.8888,-97.5696,0.0,18.8,2 
TCOON,ioos:station:TCOON:042:1,2014-02-01T03:00:00Z,27.8888,-97.5696,0.0,18.6,2 
TCOON,ioos:station:TCOON:042:1,2014-02-01T03:30:00Z,27.8888,-97.5696,0.0,18.4,2 
TCOON,ioos:station:TCOON:042:1,2014-02-01T04:00:00Z,27.8888,-97.5696,0.0,18.3,2 
TCOON,ioos:station:TCOON:042:1,2014-02-01T04:30:00Z,27.8888,-97.5696,0.0,18.2,2 
TCOON,ioos:station:TCOON:042:1,2014-02-01T05:00:00Z,27.8888,-97.5696,0.0,18.2,2 
TCOON,ioos:station:TCOON:042:1,2014-02-01T05:30:00Z,27.8888,-97.5696,0.0,18.1,2 
TCOON,ioos:station:TCOON:042:1,2014-02-01T06:00:00Z,27.8888,-97.5696,0.0,18.1,2 
TCOON,ioos:station:TCOON:042:1,2014-02-01T07:00:00Z,27.8888,-97.5696,0.0,18.2,2 
TCOON,ioos:station:TCOON:042:1,2014-02-01T07:30:00Z,27.8888,-97.5696,0.0,18.2,2 
TCOON,ioos:station:TCOON:042:1,2014-02-01T08:00:00Z,27.8888,-97.5696,0.0,18.2,2 
TCOON,ioos:station:TCOON:042:1,2014-02-01T08:30:00Z,27.8888,-97.5696,0.0,18.3,2 
TCOON,ioos:station:TCOON:042:1,2014-02-01T09:00:00Z,27.8888,-97.5696,0.0,18.3,2 
TCOON,ioos:station:TCOON:042:1,2014-02-01T09:30:00Z,27.8888,-97.5696,0.0,18.3,2 
TCOON,ioos:station:TCOON:042:1,2014-02-01T10:00:00Z,27.8888,-97.5696,0.0,18.3,2 
TCOON,ioos:station:TCOON:042:1,2014-02-01T10:30:00Z,27.8888,-97.5696,0.0,18.4,2 
TCOON,ioos:station:TCOON:042:1,2014-02-01T11:00:00Z,27.8888,-97.5696,0.0,18.3,2 
TCOON,ioos:station:TCOON:042:1,2014-02-01T11:30:00Z,27.8888,-97.5696,0.0,18.4,2 
TCOON,ioos:station:TCOON:042:1,2014-02-01T12:00:00Z,27.8888,-97.5696,0.0,18.3,2 
TCOON,ioos:station:TCOON:042:1,2014-02-01T12:30:00Z,27.8888,-97.5696,0.0,18.3,2 
TCOON,ioos:station:TCOON:042:1,2014-02-01T13:00:00Z,27.8888,-97.5696,0.0,18.3,2 
TCOON,ioos:station:TCOON:042:1,2014-02-01T13:30:00Z,27.8888,-97.5696,0.0,18.3,2 
TCOON,ioos:station:TCOON:042:1,2014-02-01T14:00:00Z,27.8888,-97.5696,0.0,18.3,2 
TCOON,ioos:station:TCOON:042:1,2014-02-01T14:30:00Z,27.8888,-97.5696,0.0,18.4,2 
TCOON,ioos:station:TCOON:042:1,2014-02-01T15:00:00Z,27.8888,-97.5696,0.0,18.6,2 
TCOON,ioos:station:TCOON:042:1,2014-02-01T15:30:00Z,27.8888,-97.5696,0.0,18.7,2 
TCOON,ioos:station:TCOON:042:1,2014-02-01T16:30:00Z,27.8888,-97.5696,0.0,19.5,2 
TCOON,ioos:station:TCOON:042:1,2014-02-01T17:00:00Z,27.8888,-97.5696,0.0,19.9,2 
TCOON,ioos:station:TCOON:042:1,2014-02-01T17:30:00Z,27.8888,-97.5696,0.0,20.4,2 
TCOON,ioos:station:TCOON:042:1,2014-02-01T18:00:00Z,27.8888,-97.5696,0.0,20.8,2 
TCOON,ioos:station:TCOON:042:1,2014-02-01T19:00:00Z,27.8888,-97.5696,0.0,21.8,2 
TCOON,ioos:station:TCOON:042:1,2014-02-01T19:30:00Z,27.8888,-97.5696,0.0,22.1,2 
TCOON,ioos:station:TCOON:042:1,2014-02-01T20:00:00Z,27.8888,-97.5696,0.0,22.6,2 
TCOON,ioos:station:TCOON:042:1,2014-02-01T20:30:00Z,27.8888,-97.5696,0.0,23.0,2 
TCOON,ioos:station:TCOON:042:1,2014-02-01T21:00:00Z,27.8888,-97.5696,0.0,23.4,2 
TCOON,ioos:station:TCOON:042:1,2014-02-01T21:30:00Z,27.8888,-97.5696,0.0,23.2,2 
TCOON,ioos:station:TCOON:042:1,2014-02-01T22:00:00Z,27.8888,-97.5696,0.0,23.2,2 
TCOON,ioos:station:TCOON:042:1,2014-02-01T23:00:00Z,27.8888,-97.5696,0.0,22.9,2 
TCOON,ioos:station:TCOON:042:1,2014-02-01T23:30:00Z,27.8888,-97.5696,0.0,22.6,2 
TCOON,ioos:station:TCOON:042:1,2014-02-02T00:00:00Z,27.8888,-97.5696,0.0,22.1,2 
TCOON,ioos:station:TCOON:042:1,2014-02-02T00:30:00Z,27.8888,-97.5696,0.0,21.7,2 
TCOON,ioos:station:TCOON:042:1,2014-02-02T01:00:00Z,27.8888,-97.5696,0.0,21.4,2 
TCOON,ioos:station:TCOON:042:1,2014-02-02T02:00:00Z,27.8888,-97.5696,0.0,20.6,2 
TCOON,ioos:station:TCOON:042:1,2014-02-02T02:30:00Z,27.8888,-97.5696,0.0,20.4,2 
TCOON,ioos:station:TCOON:042:1,2014-02-02T03:00:00Z,27.8888,-97.5696,0.0,20.1,2 
TCOON,ioos:station:TCOON:042:1,2014-02-02T03:30:00Z,27.8888,-97.5696,0.0,20.2,2 
TCOON,ioos:station:TCOON:042:1,2014-02-02T04:00:00Z,27.8888,-97.5696,0.0,20.1,2 
TCOON,ioos:station:TCOON:042:1,2014-02-02T04:30:00Z,27.8888,-97.5696,0.0,20.1,2 
TCOON,ioos:station:TCOON:042:1,2014-02-02T05:00:00Z,27.8888,-97.5696,0.0,20.1,2 
TCOON,ioos:station:TCOON:042:1,2014-02-02T05:30:00Z,27.8888,-97.5696,0.0,20.1,2 
TCOON,ioos:station:TCOON:042:1,2014-02-02T06:00:00Z,27.8888,-97.5696,0.0,19.0,2 
TCOON,ioos:station:TCOON:042:1,2014-02-02T06:30:00Z,27.8888,-97.5696,0.0,19.0,2 
TCOON,ioos:station:TCOON:042:1,2014-02-02T07:00:00Z,27.8888,-97.5696,0.0,18.9,2 
TCOON,ioos:station:TCOON:042:1,2014-02-02T07:30:00Z,27.8888,-97.5696,0.0,19.1,2 
TCOON,ioos:station:TCOON:042:1,2014-02-02T08:00:00Z,27.8888,-97.5696,0.0,19.2,2 
TCOON,ioos:station:TCOON:042:1,2014-02-02T08:30:00Z,27.8888,-97.5696,0.0,19.2,2 
TCOON,ioos:station:TCOON:042:1,2014-02-02T09:00:00Z,27.8888,-97.5696,0.0,18.9,2 
TCOON,ioos:station:TCOON:042:1,2014-02-02T09:30:00Z,27.8888,-97.5696,0.0,19.0,2 
TCOON,ioos:station:TCOON:042:1,2014-02-02T10:00:00Z,27.8888,-97.5696,0.0,18.9,2 
TCOON,ioos:station:TCOON:042:1,2014-02-02T10:30:00Z,27.8888,-97.5696,0.0,19.0,2 
TCOON,ioos:station:TCOON:042:1,2014-02-02T11:00:00Z,27.8888,-97.5696,0.0,19.0,2 
TCOON,ioos:station:TCOON:042:1,2014-02-02T11:30:00Z,27.8888,-97.5696,0.0,19.1,2 
TCOON,ioos:station:TCOON:042:1,2014-02-02T12:00:00Z,27.8888,-97.5696,0.0,18.9,2 
TCOON,ioos:station:TCOON:042:1,2014-02-02T12:30:00Z,27.8888,-97.5696,0.0,19.0,2 
TCOON,ioos:station:TCOON:042:1,2014-02-02T13:00:00Z,27.8888,-97.5696,0.0,19.0,2 
TCOON,ioos:station:TCOON:042:1,2014-02-02T13:30:00Z,27.8888,-97.5696,0.0,19.1,2 
TCOON,ioos:station:TCOON:042:1,2014-02-02T14:00:00Z,27.8888,-97.5696,0.0,19.3,2 
TCOON,ioos:station:TCOON:042:1,2014-02-02T14:30:00Z,27.8888,-97.5696,0.0,19.4,2 
TCOON,ioos:station:TCOON:042:1,2014-02-02T15:00:00Z,27.8888,-97.5696,0.0,19.5,2 
TCOON,ioos:station:TCOON:042:1,2014-02-02T15:30:00Z,27.8888,-97.5696,0.0,19.3,2 
TCOON,ioos:station:TCOON:042:1,2014-02-02T16:00:00Z,27.8888,-97.5696,0.0,19.2,2 
TCOON,ioos:station:TCOON:042:1,2014-02-02T16:30:00Z,27.8888,-97.5696,0.0,19.2,2 
TCOON,ioos:station:TCOON:042:1,2014-02-02T17:30:00Z,27.8888,-97.5696,0.0,19.0,2 
TCOON,ioos:station:TCOON:042:1,2014-02-02T18:00:00Z,27.8888,-97.5696,0.0,18.6,2 
TCOON,ioos:station:TCOON:042:1,2014-02-02T18:30:00Z,27.8888,-97.5696,0.0,18.7,2 
TCOON,ioos:station:TCOON:042:1,2014-02-02T19:00:00Z,27.8888,-97.5696,0.0,18.4,2 
TCOON,ioos:station:TCOON:042:1,2014-02-02T19:30:00Z,27.8888,-97.5696,0.0,18.1,2 
TCOON,ioos:station:TCOON:042:1,2014-02-02T20:00:00Z,27.8888,-97.5696,0.0,17.6,2 
TCOON,ioos:station:TCOON:042:1,2014-02-02T20:30:00Z,27.8888,-97.5696,0.0,16.8,2 
TCOON,ioos:station:TCOON:042:1,2014-02-02T21:00:00Z,27.8888,-97.5696,0.0,16.1,2 
TCOON,ioos:station:TCOON:042:1,2014-02-02T21:30:00Z,27.8888,-97.5696,0.0,15.5,2 
TCOON,ioos:station:TCOON:042:1,2014-02-02T22:00:00Z,27.8888,-97.5696,0.0,14.6,2 
TCOON,ioos:station:TCOON:042:1,2014-02-02T23:00:00Z,27.8888,-97.5696,0.0,13.5,2 
TCOON,ioos:station:TCOON:042:1,2014-02-02T23:30:00Z,27.8888,-97.5696,0.0,12.9,2 
TCOON,ioos:station:TCOON:042:1,2014-02-03T00:00:00Z,27.8888,-97.5696,0.0,12.4,2 
TCOON,ioos:station:TCOON:042:1,2014-02-03T00:30:00Z,27.8888,-97.5696,0.0,12.3,2 
TCOON,ioos:station:TCOON:042:1,2014-02-03T01:00:00Z,27.8888,-97.5696,0.0,12.2,2 
TCOON,ioos:station:TCOON:042:1,2014-02-03T01:30:00Z,27.8888,-97.5696,0.0,12.0,2 
TCOON,ioos:station:TCOON:042:1,2014-02-03T02:00:00Z,27.8888,-97.5696,0.0,11.5,2 
TCOON,ioos:station:TCOON:042:1,2014-02-03T02:30:00Z,27.8888,-97.5696,0.0,11.1,2 
TCOON,ioos:station:TCOON:042:1,2014-02-03T03:00:00Z,27.8888,-97.5696,0.0,11.0,2 
TCOON,ioos:station:TCOON:042:1,2014-02-03T03:30:00Z,27.8888,-97.5696,0.0,10.7,2 
TCOON,ioos:station:TCOON:042:1,2014-02-03T05:00:00Z,27.8888,-97.5696,0.0,10.1,2 
TCOON,ioos:station:TCOON:042:1,2014-02-03T05:30:00Z,27.8888,-97.5696,0.0,9.7,2 
TCOON,ioos:station:TCOON:042:1,2014-02-03T06:30:00Z,27.8888,-97.5696,0.0,9.2,2 
TCOON,ioos:station:TCOON:042:1,2014-02-03T07:00:00Z,27.8888,-97.5696,0.0,9.1,2 
TCOON,ioos:station:TCOON:042:1,2014-02-03T07:30:00Z,27.8888,-97.5696,0.0,8.8,2 
TCOON,ioos:station:TCOON:042:1,2014-02-03T08:00:00Z,27.8888,-97.5696,0.0,8.8,2 
TCOON,ioos:station:TCOON:042:1,2014-02-03T08:30:00Z,27.8888,-97.5696,0.0,8.7,2 
TCOON,ioos:station:TCOON:042:1,2014-02-03T09:00:00Z,27.8888,-97.5696,0.0,8.4,2 
TCOON,ioos:station:TCOON:042:1,2014-02-03T09:30:00Z,27.8888,-97.5696,0.0,8.1,2 
TCOON,ioos:station:TCOON:042:1,2014-02-03T10:00:00Z,27.8888,-97.5696,0.0,8.0,2 
TCOON,ioos:station:TCOON:042:1,2014-02-03T11:00:00Z,27.8888,-97.5696,0.0,7.6,2 
TCOON,ioos:station:TCOON:042:1,2014-02-03T11:30:00Z,27.8888,-97.5696,0.0,7.6,2 
TCOON,ioos:station:TCOON:042:1,2014-02-03T12:00:00Z,27.8888,-97.5696,0.0,7.4,2 
TCOON,ioos:station:TCOON:042:1,2014-02-03T12:30:00Z,27.8888,-97.5696,0.0,7.3,2 
TCOON,ioos:station:TCOON:042:1,2014-02-03T13:30:00Z,27.8888,-97.5696,0.0,7.1,2 
TCOON,ioos:station:TCOON:042:1,2014-02-03T14:00:00Z,27.8888,-97.5696,0.0,7.1,2 
TCOON,ioos:station:TCOON:042:1,2014-02-03T14:30:00Z,27.8888,-97.5696,0.0,7.1,2 
TCOON,ioos:station:TCOON:042:1,2014-02-03T15:00:00Z,27.8888,-97.5696,0.0,7.1,2 
TCOON,ioos:station:TCOON:042:1,2014-02-03T15:30:00Z,27.8888,-97.5696,0.0,6.9,2 
TCOON,ioos:station:TCOON:042:1,2014-02-03T16:00:00Z,27.8888,-97.5696,0.0,7.0,2 
TCOON,ioos:station:TCOON:042:1,2014-02-03T17:30:00Z,27.8888,-97.5696,0.0,7.4,2 
TCOON,ioos:station:TCOON:042:1,2014-02-03T18:00:00Z,27.8888,-97.5696,0.0,7.7,2 
TCOON,ioos:station:TCOON:042:1,2014-02-03T19:00:00Z,27.8888,-97.5696,0.0,8.4,2 
TCOON,ioos:station:TCOON:042:1,2014-02-03T19:30:00Z,27.8888,-97.5696,0.0,8.7,2 
TCOON,ioos:station:TCOON:042:1,2014-02-03T20:00:00Z,27.8888,-97.5696,0.0,9.1,2 
TCOON,ioos:station:TCOON:042:1,2014-02-03T20:30:00Z,27.8888,-97.5696,0.0,9.4,2 
TCOON,ioos:station:TCOON:042:1,2014-02-03T21:00:00Z,27.8888,-97.5696,0.0,9.7,2 
TCOON,ioos:station:TCOON:042:1,2014-02-03T21:30:00Z,27.8888,-97.5696,0.0,9.8,2 
TCOON,ioos:station:TCOON:042:1,2014-02-03T22:00:00Z,27.8888,-97.5696,0.0,9.9,2 
TCOON,ioos:station:TCOON:042:1,2014-02-03T22:30:00Z,27.8888,-97.5696,0.0,10.0,2 
TCOON,ioos:station:TCOON:042:1,2014-02-04T00:30:00Z,27.8888,-97.5696,0.0,9.7,2 
TCOON,ioos:station:TCOON:042:1,2014-02-04T01:30:00Z,27.8888,-97.5696,0.0,9.4,2 
TCOON,ioos:station:TCOON:042:1,2014-02-04T02:00:00Z,27.8888,-97.5696,0.0,9.3,2 
TCOON,ioos:station:TCOON:042:1,2014-02-04T02:30:00Z,27.8888,-97.5696,0.0,9.1,2 
TCOON,ioos:station:TCOON:042:1,2014-02-04T03:00:00Z,27.8888,-97.5696,0.0,8.9,2 
TCOON,ioos:station:TCOON:042:1,2014-02-04T03:30:00Z,27.8888,-97.5696,0.0,8.8,2 
TCOON,ioos:station:TCOON:042:1,2014-02-04T04:00:00Z,27.8888,-97.5696,0.0,8.7,2 
TCOON,ioos:station:TCOON:042:1,2014-02-04T04:30:00Z,27.8888,-97.5696,0.0,8.6,2 
TCOON,ioos:station:TCOON:042:1,2014-02-04T05:30:00Z,27.8888,-97.5696,0.0,8.3,2 
TCOON,ioos:station:TCOON:042:1,2014-02-04T06:00:00Z,27.8888,-97.5696,0.0,8.4,2 
TCOON,ioos:station:TCOON:042:1,2014-02-04T06:30:00Z,27.8888,-97.5696,0.0,8.3,2 
TCOON,ioos:station:TCOON:042:1,2014-02-04T07:00:00Z,27.8888,-97.5696,0.0,8.3,2 
TCOON,ioos:station:TCOON:042:1,2014-02-04T07:30:00Z,27.8888,-97.5696,0.0,8.3,2 
TCOON,ioos:station:TCOON:042:1,2014-02-14T14:30:00Z,27.8888,-97.5696,0.0,12.1,2 
TCOON,ioos:station:TCOON:042:1,2014-02-14T15:00:00Z,27.8888,-97.5696,0.0,12.3,2 
TCOON,ioos:station:TCOON:042:1,2014-02-14T15:30:00Z,27.8888,-97.5696,0.0,12.6,2 
TCOON,ioos:station:TCOON:042:1,2014-02-14T16:00:00Z,27.8888,-97.5696,0.0,13.0,2 
TCOON,ioos:station:TCOON:042:1,2014-02-14T16:30:00Z,27.8888,-97.5696,0.0,13.5,2 
TCOON,ioos:station:TCOON:042:1,2014-02-14T17:00:00Z,27.8888,-97.5696,0.0,14.2,2 
TCOON,ioos:station:TCOON:042:1,2014-02-14T17:30:00Z,27.8888,-97.5696,0.0,14.8,2 
TCOON,ioos:station:TCOON:042:1,2014-02-14T18:00:00Z,27.8888,-97.5696,0.0,15.4,2 
TCOON,ioos:station:TCOON:042:1,2014-02-14T18:30:00Z,27.8888,-97.5696,0.0,15.9,2 
TCOON,ioos:station:TCOON:042:1,2014-02-14T19:00:00Z,27.8888,-97.5696,0.0,16.4,2 
TCOON,ioos:station:TCOON:042:1,2014-02-14T20:00:00Z,27.8888,-97.5696,0.0,17.7,2 
TCOON,ioos:station:TCOON:042:1,2014-02-14T20:30:00Z,27.8888,-97.5696,0.0,17.8,2 
TCOON,ioos:station:TCOON:042:1,2014-02-14T21:00:00Z,27.8888,-97.5696,0.0,18.2,2 
TCOON,ioos:station:TCOON:042:1,2014-02-14T21:30:00Z,27.8888,-97.5696,0.0,18.9,2 
TCOON,ioos:station:TCOON:042:1,2014-02-14T22:00:00Z,27.8888,-97.5696,0.0,19.1,2 
TCOON,ioos:station:TCOON:042:1,2014-02-14T22:30:00Z,27.8888,-97.5696,0.0,19.5,2 
TCOON,ioos:station:TCOON:042:1,2014-02-14T23:00:00Z,27.8888,-97.5696,0.0,19.6,2 
TCOON,ioos:station:TCOON:042:1,2014-02-15T00:00:00Z,27.8888,-97.5696,0.0,19.5,2 
TCOON,ioos:station:TCOON:042:1,2014-02-15T01:30:00Z,27.8888,-97.5696,0.0,19.5,2 
TCOON,ioos:station:TCOON:042:1,2014-02-15T02:00:00Z,27.8888,-97.5696,0.0,19.4,2 
TCOON,ioos:station:TCOON:042:1,2014-02-15T02:30:00Z,27.8888,-97.5696,0.0,19.0,2 
TCOON,ioos:station:TCOON:042:1,2014-02-15T03:00:00Z,27.8888,-97.5696,0.0,18.8,2 
TCOON,ioos:station:TCOON:042:1,2014-02-15T03:30:00Z,27.8888,-97.5696,0.0,18.8,2 
TCOON,ioos:station:TCOON:042:1,2014-02-15T04:00:00Z,27.8888,-97.5696,0.0,18.7,2 
TCOON,ioos:station:TCOON:042:1,2014-02-15T04:30:00Z,27.8888,-97.5696,0.0,18.7,2 
TCOON,ioos:station:TCOON:042:1,2014-02-15T05:00:00Z,27.8888,-97.5696,0.0,18.7,2 
TCOON,ioos:station:TCOON:042:1,2014-02-15T05:30:00Z,27.8888,-97.5696,0.0,18.4,2 
TCOON,ioos:station:TCOON:042:1,2014-02-15T06:00:00Z,27.8888,-97.5696,0.0,18.3,2 
TCOON,ioos:station:TCOON:042:1,2014-02-15T06:30:00Z,27.8888,-97.5696,0.0,18.1,2 
TCOON,ioos:station:TCOON:042:1,2014-02-15T07:00:00Z,27.8888,-97.5696,0.0,18.0,2 
TCOON,ioos:station:TCOON:042:1,2014-02-15T07:30:00Z,27.8888,-97.5696,0.0,17.8,2 
TCOON,ioos:station:TCOON:042:1,2014-02-15T08:00:00Z,27.8888,-97.5696,0.0,17.5,2 
TCOON,ioos:station:TCOON:042:1,2014-02-15T08:30:00Z,27.8888,-97.5696,0.0,17.2,2 
TCOON,ioos:station:TCOON:042:1,2014-02-15T09:00:00Z,27.8888,-97.5696,0.0,16.9,2 
TCOON,ioos:station:TCOON:042:1,2014-02-15T09:30:00Z,27.8888,-97.5696,0.0,16.7,2 
TCOON,ioos:station:TCOON:042:1,2014-02-15T14:00:00Z,27.8888,-97.5696,0.0,15.0,2 
TCOON,ioos:station:TCOON:042:1,2014-02-15T14:30:00Z,27.8888,-97.5696,0.0,14.9,2 
TCOON,ioos:station:TCOON:042:1,2014-02-15T15:00:00Z,27.8888,-97.5696,0.0,15.0,2 
TCOON,ioos:station:TCOON:042:1,2014-02-15T15:30:00Z,27.8888,-97.5696,0.0,15.5,2 
TCOON,ioos:station:TCOON:042:1,2014-02-15T16:00:00Z,27.8888,-97.5696,0.0,15.8,2 
TCOON,ioos:station:TCOON:042:1,2014-02-15T16:30:00Z,27.8888,-97.5696,0.0,16.1,2 
TCOON,ioos:station:TCOON:042:1,2014-02-15T17:00:00Z,27.8888,-97.5696,0.0,16.4,2 
TCOON,ioos:station:TCOON:042:1,2014-02-15T17:30:00Z,27.8888,-97.5696,0.0,16.7,2 
TCOON,ioos:station:TCOON:042:1,2014-02-15T18:00:00Z,27.8888,-97.5696,0.0,17.1,2 
TCOON,ioos:station:TCOON:042:1,2014-02-15T18:30:00Z,27.8888,-97.5696,0.0,17.5,2 
TCOON,ioos:station:TCOON:042:1,2014-02-15T19:00:00Z,27.8888,-97.5696,0.0,18.1,2 
TCOON,ioos:station:TCOON:042:1,2014-02-15T19:30:00Z,27.8888,-97.5696,0.0,18.6,2 
TCOON,ioos:station:TCOON:042:1,2014-02-15T20:30:00Z,27.8888,-97.5696,0.0,19.4,2 
TCOON,ioos:station:TCOON:042:1,2014-02-15T21:00:00Z,27.8888,-97.5696,0.0,19.6,2 
TCOON,ioos:station:TCOON:042:1,2014-02-16T02:30:00Z,27.8888,-97.5696,0.0,19.1,2 
TCOON,ioos:station:TCOON:042:1,2014-02-16T03:00:00Z,27.8888,-97.5696,0.0,19.0,2 
TCOON,ioos:station:TCOON:042:1,2014-02-16T03:30:00Z,27.8888,-97.5696,0.0,19.0,2 
TCOON,ioos:station:TCOON:042:1,2014-02-16T04:00:00Z,27.8888,-97.5696,0.0,18.9,2 
TCOON,ioos:station:TCOON:042:1,2014-02-16T04:30:00Z,27.8888,-97.5696,0.0,18.7,2 
TCOON,ioos:station:TCOON:042:1,2014-02-16T05:00:00Z,27.8888,-97.5696,0.0,18.6,2 
TCOON,ioos:station:TCOON:042:1,2014-02-16T06:00:00Z,27.8888,-97.5696,0.0,18.3,2 
TCOON,ioos:station:TCOON:042:1,2014-02-16T06:30:00Z,27.8888,-97.5696,0.0,18.1,2 
TCOON,ioos:station:TCOON:042:1,2014-02-16T07:00:00Z,27.8888,-97.5696,0.0,18.1,2 
TCOON,ioos:station:TCOON:042:1,2014-02-16T07:30:00Z,27.8888,-97.5696,0.0,18.1,2 
TCOON,ioos:station:TCOON:042:1,2014-02-16T08:00:00Z,27.8888,-97.5696,0.0,18.0,2 
TCOON,ioos:station:TCOON:042:1,2014-02-16T08:30:00Z,27.8888,-97.5696,0.0,18.0,2 
TCOON,ioos:station:TCOON:042:1,2014-02-16T09:00:00Z,27.8888,-97.5696,0.0,17.8,2 
TCOON,ioos:station:TCOON:042:1,2014-02-16T09:30:00Z,27.8888,-97.5696,0.0,17.7,2 
TCOON,ioos:station:TCOON:042:1,2014-02-16T10:00:00Z,27.8888,-97.5696,0.0,17.6,2 
TCOON,ioos:station:TCOON:042:1,2014-02-16T11:00:00Z,27.8888,-97.5696,0.0,17.7,2 
TCOON,ioos:station:TCOON:042:1,2014-02-16T11:30:00Z,27.8888,-97.5696,0.0,17.8,2 
TCOON,ioos:station:TCOON:042:1,2014-02-16T12:00:00Z,27.8888,-97.5696,0.0,17.7,2 
TCOON,ioos:station:TCOON:042:1,2014-02-16T13:00:00Z,27.8888,-97.5696,0.0,17.6,2 
TCOON,ioos:station:TCOON:042:1,2014-02-16T13:30:00Z,27.8888,-97.5696,0.0,17.6,2 
TCOON,ioos:station:TCOON:042:1,2014-02-16T14:00:00Z,27.8888,-97.5696,0.0,17.6,2 
TCOON,ioos:station:TCOON:042:1,2014-02-16T15:00:00Z,27.8888,-97.5696,0.0,17.6,2 
TCOON,ioos:station:TCOON:042:1,2014-02-16T16:00:00Z,27.8888,-97.5696,0.0,17.9,2 
TCOON,ioos:station:TCOON:042:1,2014-02-16T17:00:00Z,27.8888,-97.5696,0.0,18.5,2 
TCOON,ioos:station:TCOON:042:1,2014-02-16T17:30:00Z,27.8888,-97.5696,0.0,18.8,2 
TCOON,ioos:station:TCOON:042:1,2014-02-16T18:00:00Z,27.8888,-97.5696,0.0,19.3,2 
TCOON,ioos:station:TCOON:042:1,2014-02-16T18:30:00Z,27.8888,-97.5696,0.0,19.8,2 
TCOON,ioos:station:TCOON:042:1,2014-02-16T19:00:00Z,27.8888,-97.5696,0.0,20.5,2 
TCOON,ioos:station:TCOON:042:1,2014-02-16T19:30:00Z,27.8888,-97.5696,0.0,21.1,2 
TCOON,ioos:station:TCOON:042:1,2014-02-16T20:30:00Z,27.8888,-97.5696,0.0,22.2,2 
TCOON,ioos:station:TCOON:042:1,2014-02-16T21:00:00Z,27.8888,-97.5696,0.0,22.7,2 
TCOON,ioos:station:TCOON:042:1,2014-02-16T21:30:00Z,27.8888,-97.5696,0.0,23.0,2 
TCOON,ioos:station:TCOON:042:1,2014-02-16T22:00:00Z,27.8888,-97.5696,0.0,23.2,2 
TCOON,ioos:station:TCOON:042:1,2014-02-16T22:30:00Z,27.8888,-97.5696,0.0,23.3,2 
TCOON,ioos:station:TCOON:042:1,2014-02-16T23:00:00Z,27.8888,-97.5696,0.0,23.1,2 
TCOON,ioos:station:TCOON:042:1,2014-02-16T23:30:00Z,27.8888,-97.5696,0.0,22.9,2 
TCOON,ioos:station:TCOON:042:1,2014-02-17T00:00:00Z,27.8888,-97.5696,0.0,22.6,2 
TCOON,ioos:station:TCOON:042:1,2014-02-17T00:30:00Z,27.8888,-97.5696,0.0,22.2,2 
TCOON,ioos:station:TCOON:042:1,2014-02-17T01:00:00Z,27.8888,-97.5696,0.0,21.7,2 
TCOON,ioos:station:TCOON:042:1,2014-02-17T01:30:00Z,27.8888,-97.5696,0.0,21.4,2 
TCOON,ioos:station:TCOON:042:1,2014-02-17T02:00:00Z,27.8888,-97.5696,0.0,21.0,2 
TCOON,ioos:station:TCOON:042:1,2014-02-17T02:30:00Z,27.8888,-97.5696,0.0,20.7,2 
TCOON,ioos:station:TCOON:042:1,2014-02-17T03:00:00Z,27.8888,-97.5696,0.0,20.5,2 
TCOON,ioos:station:TCOON:042:1,2014-02-17T03:30:00Z,27.8888,-97.5696,0.0,20.3,2 
TCOON,ioos:station:TCOON:042:1,2014-02-17T04:00:00Z,27.8888,-97.5696,0.0,20.1,2 
TCOON,ioos:station:TCOON:042:1,2014-02-17T04:30:00Z,27.8888,-97.5696,0.0,20.0,2 
TCOON,ioos:station:TCOON:042:1,2014-02-17T05:00:00Z,27.8888,-97.5696,0.0,19.9,2 
TCOON,ioos:station:TCOON:042:1,2014-02-17T05:30:00Z,27.8888,-97.5696,0.0,19.8,2 
TCOON,ioos:station:TCOON:042:1,2014-02-17T06:00:00Z,27.8888,-97.5696,0.0,19.8,2 
TCOON,ioos:station:TCOON:042:1,2014-02-17T06:30:00Z,27.8888,-97.5696,0.0,19.7,2 
TCOON,ioos:station:TCOON:042:1,2014-02-17T07:00:00Z,27.8888,-97.5696,0.0,19.6,2 
TCOON,ioos:station:TCOON:042:1,2014-02-17T07:30:00Z,27.8888,-97.5696,0.0,19.5,2 
TCOON,ioos:station:TCOON:042:1,2014-02-17T08:00:00Z,27.8888,-97.5696,0.0,19.4,2 
TCOON,ioos:station:TCOON:042:1,2014-02-17T08:30:00Z,27.8888,-97.5696,0.0,19.3,2 
TCOON,ioos:station:TCOON:042:1,2014-02-17T09:00:00Z,27.8888,-97.5696,0.0,19.3,2 
TCOON,ioos:station:TCOON:042:1,2014-02-17T09:30:00Z,27.8888,-97.5696,0.0,19.2,2 
TCOON,ioos:station:TCOON:042:1,2014-02-17T10:00:00Z,27.8888,-97.5696,0.0,19.2,2 
TCOON,ioos:station:TCOON:042:1,2014-02-17T10:30:00Z,27.8888,-97.5696,0.0,19.2,2 
TCOON,ioos:station:TCOON:042:1,2014-02-17T11:30:00Z,27.8888,-97.5696,0.0,19.2,2 
TCOON,ioos:station:TCOON:042:1,2014-02-17T12:00:00Z,27.8888,-97.5696,0.0,19.1,2 
TCOON,ioos:station:TCOON:042:1,2014-02-17T12:30:00Z,27.8888,-97.5696,0.0,19.1,2 
TCOON,ioos:station:TCOON:042:1,2014-02-17T13:00:00Z,27.8888,-97.5696,0.0,18.9,2 
TCOON,ioos:station:TCOON:042:1,2014-02-17T13:30:00Z,27.8888,-97.5696,0.0,18.8,2 
TCOON,ioos:station:TCOON:042:1,2014-02-17T14:00:00Z,27.8888,-97.5696,0.0,18.7,2 
TCOON,ioos:station:TCOON:042:1,2014-02-17T14:30:00Z,27.8888,-97.5696,0.0,18.7,2 
TCOON,ioos:station:TCOON:042:1,2014-02-17T15:30:00Z,27.8888,-97.5696,0.0,18.9,2 
TCOON,ioos:station:TCOON:042:1,2014-02-17T16:00:00Z,27.8888,-97.5696,0.0,19.2,2 
TCOON,ioos:station:TCOON:042:1,2014-02-17T16:30:00Z,27.8888,-97.5696,0.0,19.7,2 
TCOON,ioos:station:TCOON:042:1,2014-02-17T17:00:00Z,27.8888,-97.5696,0.0,20.5,2 
TCOON,ioos:station:TCOON:042:1,2014-02-17T17:30:00Z,27.8888,-97.5696,0.0,21.4,2 
TCOON,ioos:station:TCOON:042:1,2014-02-17T18:00:00Z,27.8888,-97.5696,0.0,22.1,2 
TCOON,ioos:station:TCOON:042:1,2014-02-17T18:30:00Z,27.8888,-97.5696,0.0,22.6,2 
TCOON,ioos:station:TCOON:042:1,2014-02-17T19:00:00Z,27.8888,-97.5696,0.0,23.3,2 
TCOON,ioos:station:TCOON:042:1,2014-02-17T19:30:00Z,27.8888,-97.5696,0.0,23.9,2 
TCOON,ioos:station:TCOON:042:1,2014-02-17T20:00:00Z,27.8888,-97.5696,0.0,24.2,2 
TCOON,ioos:station:TCOON:042:1,2014-02-17T20:30:00Z,27.8888,-97.5696,0.0,24.6,2 
TCOON,ioos:station:TCOON:042:1,2014-02-17T21:00:00Z,27.8888,-97.5696,0.0,24.9,2 
TCOON,ioos:station:TCOON:042:1,2014-02-17T21:30:00Z,27.8888,-97.5696,0.0,25.1,2 
TCOON,ioos:station:TCOON:042:1,2014-02-17T22:00:00Z,27.8888,-97.5696,0.0,25.3,2 
TCOON,ioos:station:TCOON:042:1,2014-02-17T22:30:00Z,27.8888,-97.5696,0.0,25.3,2 
TCOON,ioos:station:TCOON:042:1,2014-02-17T23:00:00Z,27.8888,-97.5696,0.0,25.1,2 
TCOON,ioos:station:TCOON:042:1,2014-02-17T23:30:00Z,27.8888,-97.5696,0.0,24.8,2 
TCOON,ioos:station:TCOON:042:1,2014-02-18T00:30:00Z,27.8888,-97.5696,0.0,23.9,2 
TCOON,ioos:station:TCOON:042:1,2014-02-18T01:00:00Z,27.8888,-97.5696,0.0,23.5,2 
TCOON,ioos:station:TCOON:042:1,2014-02-18T01:30:00Z,27.8888,-97.5696,0.0,23.2,2 
TCOON,ioos:station:TCOON:042:1,2014-02-18T21:00:00Z,27.8888,-97.5696,0.0,24.6,2 
TCOON,ioos:station:TCOON:042:1,2014-02-19T15:00:00Z,27.8888,-97.5696,0.0,19.0,2 
TCOON,ioos:station:TCOON:042:1,2014-02-19T15:30:00Z,27.8888,-97.5696,0.0,19.4,2 
TCOON,ioos:station:TCOON:042:1,2014-02-19T16:00:00Z,27.8888,-97.5696,0.0,19.9,2 
TCOON,ioos:station:TCOON:042:1,2014-02-19T16:30:00Z,27.8888,-97.5696,0.0,20.5,2 
TCOON,ioos:station:TCOON:042:1,2014-02-19T17:00:00Z,27.8888,-97.5696,0.0,21.4,2 
TCOON,ioos:station:TCOON:042:1,2014-02-19T17:30:00Z,27.8888,-97.5696,0.0,22.3,2 
TCOON,ioos:station:TCOON:042:1,2014-02-19T18:00:00Z,27.8888,-97.5696,0.0,22.8,2 
TCOON,ioos:station:TCOON:042:1,2014-02-19T18:30:00Z,27.8888,-97.5696,0.0,23.2,2 
TCOON,ioos:station:TCOON:042:1,2014-02-19T19:00:00Z,27.8888,-97.5696,0.0,23.7,2 
TCOON,ioos:station:TCOON:042:1,2014-02-19T19:30:00Z,27.8888,-97.5696,0.0,24.0,2 
TCOON,ioos:station:TCOON:042:1,2014-02-19T20:00:00Z,27.8888,-97.5696,0.0,24.6,2 
TCOON,ioos:station:TCOON:042:1,2014-02-19T20:30:00Z,27.8888,-97.5696,0.0,25.3,2 
TCOON,ioos:station:TCOON:042:1,2014-02-19T21:00:00Z,27.8888,-97.5696,0.0,25.3,2 
TCOON,ioos:station:TCOON:042:1,2014-02-19T21:30:00Z,27.8888,-97.5696,0.0,25.3,2 
TCOON,ioos:station:TCOON:042:1,2014-02-19T22:00:00Z,27.8888,-97.5696,0.0,25.0,2 
TCOON,ioos:station:TCOON:042:1,2014-02-19T22:30:00Z,27.8888,-97.5696,0.0,24.7,2 
TCOON,ioos:station:TCOON:042:1,2014-02-19T23:00:00Z,27.8888,-97.5696,0.0,24.1,2 
TCOON,ioos:station:TCOON:042:1,2014-02-19T23:30:00Z,27.8888,-97.5696,0.0,23.4,2 
TCOON,ioos:station:TCOON:042:1,2014-02-20T00:00:00Z,27.8888,-97.5696,0.0,22.8,2 
TCOON,ioos:station:TCOON:042:1,2014-02-20T01:00:00Z,27.8888,-97.5696,0.0,21.6,2 